SCP
0 0 0 0 0 0 0 0 0 0 0 0 0 1 2 3 3 4 5 5 5 7 8 10 11 12 12 14 13 11 8 7 7 6 6 5 5 4 4 4 4 6 6 6
0 0 0 0 0 0 0 0 0 0 0 0 0 1 2 3 3 4 4 5 5 6 7 8 9 10 13 14 13 11 9 7 7 7 6 5 4 4 4 4 4 4 5 5
0 0 0 0 0 0 0 0 0 0 0 0 0 1 2 3 4 4 4 4 4 4 4 5 6 8 10 12 11 9 8 7 7 7 6 5 4 4 3 3 3 3 4 5
0 0 0 0 0 0 0 0 0 0 0 0 0 1 2 4 5 5 5 4 3 3 3 4 5 5 6 7 8 7 7 6 6 6 5 5 4 3 2 2 2 3 3 3
0 0 0 0 0 0 0 0 0 0 0 0 0 1 2 4 5 5 5 4 3 2 3 4 4 4 4 5 6 7 7 6 5 5 4 4 3 3 2 2 2 2 3 3
0 0 0 0 0 0 0 0 0 0 0 0 0 1 2 3 4 4 4 4 3 3 4 5 5 5 4 4 6 7 7 7 6 5 5 4 3 2 2 2 2 2 2 2
0 0 0 0 0 0 0 0 0 0 0 0 0 1 1 2 3 3 3 3 4 4 5 6 6 6 4 4 5 7 8 7 5 5 5 4 2 2 2 2 2 2 2 2
0 0 0 0 0 0 0 0 0 0 0 0 0 1 1 2 2 3 3 3 3 4 5 5 6 5 4 3 4 6 7 6 4 4 3 3 2 2 2 2 1 1 1 1
0 0 0 0 0 0 0 0 0 0 0 0 0 1 2 2 2 2 2 2 3 3 4 4 5 5 4 3 3 4 5 4 3 2 2 2 2 2 2 2 2 1 1 1
0 0 0 0 0 0 0 0 0 0 0 0 0 1 1 2 2 2 2 2 3 3 4 4 4 4 3 3 3 3 3 3 2 2 2 2 2 2 2 2 2 1 1 1
0 0 0 0 0 0 0 0 0 0 0 0 0 1 1 2 2 2 1 2 3 3 3 3 3 2 2 2 2 2 1 1 1 1 2 2 3 3 2 2 1 1 0 0
0 0 0 0 0 0 0 0 0 0 0 0 0 1 1 2 2 2 1 1 2 2 2 3 2 1 1 1 1 1 1 1 1 1 1 2 2 2 1 1 0 0 0 0
0 0 0 0 0 0 0 0 0 0 0 0 0 1 1 2 2 1 1 1 1 1 2 2 2 2 1 0 0 0 0 0 0 0 1 1 1 0 0 0 0 0 0 0
0 0 0 0 0 0 0 0 0 0 0 0 0 1 1 2 2 1 1 1 1 1 1 2 2 2 1 1 0 0 0 0 0 0 0 0 0 0 0 0 0 0 0 0
0 0 0 0 0 0 0 0 0 0 0 0 0 1 1 2 2 2 2 1 1 1 1 2 2 2 2 1 1 1 0 0 0 0 0 0 0 0 0 0 0 0 0 0
0 0 0 0 0 0 0 0 0 0 0 0 1 1 1 1 1 1 1 1 1 1 1 2 2 1 1 1 1 1 0 0 0 0 0 0 0 0 0 0 0 0 0 0
0 1 1 0 0 0 0 0 0 0 1 1 1 1 1 2 1 1 1 1 1 1 1 1 1 1 1 1 1 0 0 0 0 0 0 0 0 0 0 0 0 0 0 0
0 1 1 0 0 0 0 0 0 0 1 1 1 1 2 2 2 1 1 1 0 0 0 0 0 0 0 0 0 0 0 0 0 0 0 0 0 0 0 0 0 0 0 0
0 1 0 0 0 0 0 0 0 0 1 1 1 2 2 2 2 1 1 1 0 0 0 0 0 0 0 0 0 0 0 0 0 0 0 0 0 0 0 0 0 0 0 0
0 0 0 0 0 0 0 0 0 0 1 1 1 2 2 1 1 1 0 0 0 0 0 0 0 0 0 0 0 0 0 0 0 0 0 0 0 0 0 0 0 0 0 0
0 0 0 0 0 1 1 0 0 1 1 1 1 1 1 1 1 0 0 0 0 0 0 0 0 0 0 0 0 0 0 0 0 0 0 0 0 0 0 0 0 0 0 0
0 0 0 0 0 1 1 1 1 1 1 1 1 1 1 1 0 0 0 0 0 0 0 0 0 0 0 0 0 0 0 0 0 0 0 0 0 0 0 0 0 0 0 0
0 0 0 0 0 1 1 1 1 1 1 1 1 1 1 1 0 0 0 0 0 0 0 0 0 0 0 0 0 0 0 0 0 0 0 0 0 0 0 0 0 0 0 0
0 0 0 0 1 1 1 0 1 1 1 1 1 1 1 0 0 0 0 0 0 0 0 0 0 0 0 0 0 0 0 0 0 0 0 0 0 0 0 0 0 0 0 0
0 0 0 0 1 1 1 0 0 1 1 1 1 1 0 0 0 0 0 0 0 0 0 0 0 0 0 0 0 0 0 0 0 0 0 0 0 0 0 0 0 0 0 0
0 0 0 1 1 1 1 0 0 1 1 1 1 1 0 0 0 0 0 0 0 0 0 0 0 0 0 0 0 0 0 0 0 0 0 0 0 0 0 0 0 0 0 0
Wind_Speed
14 13 12 11 11 10 11 12 13 11 6 8 10 10 6 3 2 2 3 4 7 8 10 11 11 10 9 9 6 4 2 2 3 4 4 3 2 1 1 0 2 2 3 4
14 15 13 10 6 8 11 13 14 11 8 8 11 10 7 4 3 2 4 5 7 7 10 11 12 11 9 9 8 6 4 2 1 2 3 2 2 2 2 1 1 1 1 3
15 10 7 6 8 11 13 13 13 13 11 11 13 11 7 3 3 4 6 7 7 7 8 10 10 10 9 10 8 6 6 4 2 2 2 3 3 2 2 3 2 2 3 2
14 11 7 8 11 12 12 12 12 14 14 12 10 10 6 4 3 4 5 7 7 8 8 9 8 8 9 9 8 7 6 6 4 3 3 3 3 3 2 3 3 4 5 4
12 10 10 11 11 11 13 13 12 13 14 15 11 9 5 5 4 3 6 7 7 8 9 9 8 8 9 9 8 6 7 7 5 4 4 5 5 4 4 5 6 6 6 7
15 13 11 11 10 10 12 14 13 12 11 14 10 10 5 5 7 6 7 8 8 8 10 10 9 8 8 9 9 8 8 8 7 7 7 7 8 7 7 7 6 6 5 6
14 14 12 11 11 11 10 10 7 7 6 9 9 7 2 4 10 12 11 9 8 9 9 10 10 10 10 10 10 9 9 10 9 9 9 8 9 9 9 8 8 7 6 7
11 8 6 7 9 10 9 9 6 7 7 7 5 4 1 7 10 13 13 11 9 9 10 10 10 10 10 10 10 10 10 11 10 9 9 9 10 8 8 10 8 8 7 7
8 7 5 5 6 8 10 9 7 8 11 7 3 2 4 9 11 12 12 11 10 10 10 10 10 10 10 10 10 10 11 11 10 10 11 11 11 11 10 10 10 8 8 7
8 10 9 6 6 9 9 9 7 6 6 6 4 2 0 6 9 9 9 10 11 10 10 10 10 10 10 10 10 10 11 12 11 10 10 10 11 11 10 10 11 10 9 8
6 8 10 8 8 9 7 7 7 7 6 6 5 2 2 6 8 11 10 10 11 10 10 9 9 10 10 10 11 11 10 11 11 11 10 11 11 10 10 10 10 9 8 8
3 5 9 9 9 10 8 7 7 7 7 7 5 1 2 4 7 10 12 11 11 11 10 10 10 10 10 10 11 10 10 11 11 10 11 11 10 10 10 10 9 8 8 8
4 4 7 8 7 8 9 8 6 6 5 6 5 1 5 9 11 12 12 11 10 10 10 10 10 10 10 10 10 10 10 10 10 11 11 11 10 10 10 9 8 8 8 8
3 6 7 8 7 8 9 10 7 6 5 6 4 3 8 10 11 12 11 11 10 10 10 10 10 9 10 10 10 10 10 9 10 10 11 10 9 9 8 8 7 7 7 7
4 7 9 10 10 10 11 10 8 7 6 6 3 3 9 12 13 13 13 12 11 11 10 10 9 9 9 9 9 9 9 9 9 10 10 9 8 7 7 7 7 7 7 8
4 7 11 12 12 11 11 7 5 5 6 3 3 5 11 13 13 13 13 12 12 11 11 10 10 10 9 9 9 9 9 8 8 9 9 8 7 7 7 7 7 7 7 7
6 6 8 10 13 13 7 4 3 4 5 4 3 8 15 14 13 13 12 12 12 11 11 10 9 8 8 8 9 9 8 8 8 8 8 7 7 7 7 7 7 7 7 7
8 7 6 8 10 7 2 1 2 3 6 7 9 14 14 14 12 10 11 12 12 12 11 10 9 9 8 8 8 8 7 8 8 8 7 7 7 8 7 7 7 6 6 6
8 7 6 6 7 5 2 2 4 3 4 8 11 15 16 17 14 9 9 11 12 12 11 9 9 9 9 8 8 8 8 8 8 8 7 6 7 7 7 7 6 5 5 5
9 8 7 7 8 5 1 3 4 1 5 9 11 15 17 15 8 7 11 13 13 12 11 10 9 9 9 8 7 8 8 7 7 7 7 6 6 6 6 6 5 4 4 4
8 9 9 9 6 1 3 4 5 3 4 7 9 13 13 8 6 15 15 14 13 13 12 11 10 9 8 7 6 7 7 7 7 7 6 6 5 6 6 4 3 3 4 5
6 4 4 5 2 2 5 5 5 5 7 9 11 12 12 14 19 18 17 15 14 14 13 11 9 8 7 6 6 7 7 6 6 6 6 5 4 5 6 4 3 4 4 4
2 1 1 2 3 5 7 8 8 7 9 11 13 15 17 18 18 18 16 15 14 13 12 10 10 9 7 6 6 8 7 6 6 6 5 5 5 5 4 3 3 3 3 3
2 2 1 4 9 9 9 10 10 11 12 14 16 17 17 18 18 17 15 14 13 12 11 10 11 10 8 7 6 7 6 5 5 5 5 4 4 4 3 2 2 3 3 3
1 2 1 6 10 10 10 11 13 14 15 16 16 16 17 18 18 16 14 14 12 11 10 10 9 9 9 8 7 7 6 5 5 4 4 4 4 5 6 7 7 7 7 6
3 1 1 4 9 8 12 12 15 15 15 16 16 17 17 16 17 16 13 12 11 11 10 10 10 9 9 9 8 6 6 5 4 4 4 3 4 4 5 6 7 11 8 9
Wind_Direction
224 231 243 242 237 273 305 304 299 295 288 274 267 268 255 229 201 148 104 86 72 61 53 44 33 35 33 35 49 70 91 130 148 153 170 204 209 189 122 130 234 190 201 217
238 233 247 265 284 289 284 281 281 285 281 271 272 270 261 248 216 171 115 90 86 72 57 46 32 29 36 32 31 39 39 33 155 171 166 173 155 140 147 155 52 12 215 213
244 249 230 258 269 266 267 277 287 294 288 260 260 265 271 244 159 117 106 88 80 69 62 52 38 24 27 31 22 20 27 32 45 115 143 142 134 146 149 108 79 45 45 27
253 255 251 254 261 265 275 282 287 287 285 280 269 269 253 208 173 133 111 99 84 77 68 59 46 29 24 23 20 16 29 36 34 77 125 140 136 125 110 102 94 61 53 49
262 260 253 253 261 273 284 292 289 285 280 277 275 270 265 165 194 157 107 93 79 77 74 66 53 40 26 19 21 23 36 44 34 54 95 117 109 102 96 95 81 65 54 50
270 274 271 274 276 280 286 287 284 283 280 273 280 275 250 177 178 155 118 104 91 82 72 63 60 53 38 25 22 28 42 45 38 50 66 85 99 106 106 97 89 75 61 52
256 263 262 260 268 271 276 279 287 298 291 281 316 305 322 151 157 147 136 127 102 88 77 61 48 46 40 32 24 35 49 51 46 57 70 81 91 96 95 89 81 76 66 58
268 270 262 244 256 281 283 273 266 279 279 277 301 287 64 102 119 121 123 118 102 87 76 68 54 48 43 39 35 43 55 59 56 59 69 73 76 77 77 77 80 77 73 69
300 310 284 263 260 274 281 278 271 271 278 282 250 214 114 110 114 118 122 117 107 93 81 73 63 55 51 50 48 49 57 62 63 67 72 71 75 80 81 83 83 82 80 80
282 295 293 291 272 257 261 284 292 288 302 296 285 260 170 157 154 143 133 120 107 97 87 78 70 63 58 58 63 60 63 67 67 69 75 79 78 81 84 83 83 83 83 83
283 291 294 297 285 291 278 275 287 295 305 306 307 317 155 176 176 157 132 117 111 101 90 82 78 74 72 71 67 66 67 71 72 74 77 80 82 83 83 82 84 86 87 85
299 297 298 302 311 308 292 292 292 294 304 305 308 337 58 126 147 134 117 108 101 98 93 88 84 81 75 73 72 70 71 73 73 75 76 76 79 81 82 83 84 85 85 84
346 306 302 317 336 328 304 291 295 298 300 307 314 283 98 106 117 116 114 112 108 103 99 94 86 81 80 77 77 75 74 77 81 82 81 79 78 81 82 82 82 81 82 82
295 280 284 286 279 272 281 287 292 297 300 306 302 176 139 130 125 122 121 122 119 112 103 98 92 88 86 83 82 82 80 80 83 84 83 82 82 84 87 89 88 86 86 84
272 282 291 289 283 273 278 289 303 308 304 301 303 159 153 149 142 136 133 131 128 120 114 110 105 101 98 96 93 92 90 88 88 90 89 88 90 91 91 88 85 83 82 83
258 288 300 298 295 284 278 276 291 306 319 338 77 103 133 132 132 136 140 141 135 129 123 117 111 109 107 106 103 100 99 98 95 94 96 98 97 93 90 88 85 81 77 78
271 278 293 296 301 296 286 300 317 339 3 9 51 121 134 135 142 147 149 143 136 130 123 118 114 111 108 108 109 107 108 107 102 100 101 101 99 93 90 91 88 85 82 81
261 281 284 289 302 296 299 45 42 10 37 60 100 126 136 135 132 134 141 140 134 131 127 124 120 115 112 111 111 113 112 108 105 101 98 97 97 96 94 91 87 83 82 84
232 248 270 280 288 280 307 358 23 14 63 93 114 125 124 121 113 112 128 130 130 130 126 123 122 122 121 120 119 116 110 105 102 100 96 92 91 95 96 95 92 90 92 95
221 224 247 268 289 300 67 30 354 324 96 100 121 134 139 147 146 144 139 131 128 127 127 127 127 125 123 125 128 125 121 117 113 110 102 96 93 93 94 97 102 106 109 109
221 224 240 261 274 358 16 346 315 335 99 115 129 140 151 162 125 133 137 134 131 130 130 131 129 125 125 133 133 125 119 114 110 107 106 102 101 101 96 96 104 114 105 101
235 242 263 283 303 61 359 6 45 90 111 113 118 124 122 113 116 128 134 136 135 134 135 135 130 128 133 140 133 124 119 118 116 112 109 105 99 101 100 93 92 105 119 124
236 85 59 69 102 107 73 79 93 106 108 112 116 121 123 124 129 132 134 136 138 140 140 138 136 136 139 140 135 128 127 125 120 114 113 110 99 93 103 115 130 143 156 147
4 52 120 115 115 109 99 96 94 99 106 111 118 124 128 130 133 135 137 138 140 142 142 143 144 141 141 141 135 132 134 132 127 125 124 119 115 111 95 66 68 58 49 68
300 330 91 107 120 115 104 103 105 106 109 114 120 125 130 132 135 136 137 139 141 144 146 148 146 145 145 144 139 140 136 129 128 127 126 125 110 98 83 67 51 63 53 47
250 158 76 109 134 122 118 116 116 118 120 123 124 126 130 132 133 134 135 137 141 145 146 146 146 144 143 142 138 134 131 131 131 130 133 129 128 129 123 113 88 59 73 70